Hourly Data Report for February 18, 2003

SHERBROOKE A
QUEBEC

45°26'00.000" N
71°41'00.000" W
241.40 m
7028124
71610
YSC

Download Data

Hourly Data (February 2003)
Hourly Data Report for February 18, 2003
TIME
LST
Temp Definition
°C
Dew Point Definition
°C
Rel Hum Definition
%
Precip. Amount Definition
mm

Wind Dir Definition
10's deg

Wind Spd Definition
km/h
Visibility Definition
km
Stn Press Definition
kPa
Hmdx Definition


Wind Chill Definition


Weather Definition


00:00 -12.2 -21.6 45   8 7 15.0 99.20   -17  
01:00 -13.0 -20.5 53   9 6 15.0 99.12   -17  
02:00 -12.7 -21.4 48   9 7 15.0 99.05   -17  
03:00 -13.2 -21.5 50   9 7 15.0 99.00   -18  
04:00 -12.6 -21.7 47   7 7 15.0 98.99   -17  
05:00 -11.9 -22.1 42   6 15 15.0 99.01   -19  
06:00 -12.1 -22.2 43   7 9 15.0 99.00   -17  
07:00 -12.6 -22.4 44   6 9 15.0 99.02   -18  
08:00 -11.8 -21.9 43   7 9 24.1 99.02   -17 Mostly Cloudy
09:00 -10.7 -21.2 42   6 9 24.1 98.98   -16 Mostly Cloudy
10:00 -9.3 -20.5 40   8 6 24.1 98.96   -13 Mostly Cloudy
11:00 -7.2 -19.4 37   10 4 24.1 98.93   -9 Cloudy
12:00 -4.6 -17.0 37     0 24.1 98.85     Cloudy
13:00 -3.7 -17.0 35   5 4 24.1 98.82   -5 Cloudy
14:00 -3.2 -17.5 32   3 4 24.1 98.79   -5 Cloudy
15:00 -2.9 -15.3 38     0 24.1 98.74     Cloudy
16:00 -2.6 -15.2 37   8 4 24.1 98.73   -4 Cloudy
17:00 -2.9 -15.0 39     0 24.1 98.75     Cloudy
18:00 -3.4 -15.2 40   36 4 15.0 98.79   -5  
19:00 -5.8 -13.4 55     0 15.0 98.82      
20:00 -6.7 -13.8 57   18 4 15.0 98.85   -9  
21:00 -6.9 -13.0 62   22 4 15.0 98.93   -9  
22:00 -6.9 -12.9 62   20 6 15.0 98.95   -10  
23:00 -5.7 -13.7 53   24 7 15.0 98.97   -9  

Notes on Data Quality.

Legend

  • E = Estimated
  • M = Missing
  • NA = Not Available*
  • [empty] = Indicates an unobserved value
Date modified: